Volver al catálogo

TOMORROW-S9

ActivoComunicacionesVLEO
NORAD 66309·PAYLOAD·🇺🇸 United States

Lanzado Nov 2, 2025 desde Cape Canaveral Space Force Station

Loading…

Próximos Pases (próximas 24 horas)

TLE

ActualizadoSource: Space-Track

Época: Sep 14, 2026, 08:04 UTC

1 66309U 25248S   26257.33668183  .00002895  00000-0  14014-3 0  9992
2 66309  45.4048   3.5164 0004154 223.8071 136.2486 15.21164675 48085

Sigue TOMORROW-S9 en tiempo real con AllMySat

Download on the App Store